Time,TemperatureF,DewpointF,PressureIn,WindDirection,WindDirectionDegrees,WindSpeedMPH,WindSpeedGustMPH,Humidity,HourlyPrecipIn,Conditions,Clouds,dailyrainin,SoftwareType,DateUTC
2013-02-11 00:01:00,15.0,13.0,-100.00,NNW,334,0.0,1.0,93,-99.99,,,-99.99,,2013-02-11 07:01:00,
2013-02-11 00:11:00,15.0,13.0,-100.00,North,0,0.0,0.0,93,-99.99,,,-99.99,,2013-02-11 07:11:00,
2013-02-11 00:21:00,15.0,14.0,-100.00,NNW,343,2.0,3.0,94,-99.99,,,-99.99,,2013-02-11 07:21:00,
2013-02-11 00:31:00,15.0,14.0,-100.00,WSW,249,1.0,1.0,94,-99.99,,,-99.99,,2013-02-11 07:31:00,
2013-02-11 00:41:00,15.0,14.0,-100.00,WSW,249,1.0,1.0,94,-99.99,,,-99.99,,2013-02-11 07:41:00,
2013-02-11 00:51:00,15.0,14.0,-100.00,South,191,2.0,2.0,94,-99.99,,,-99.99,,2013-02-11 07:51:00,
2013-02-11 01:01:00,15.0,14.0,-100.00,ESE,122,2.0,2.0,93,-99.99,,,-99.99,,2013-02-11 08:01:00,
2013-02-11 01:11:00,14.0,12.0,-100.00,North,0,0.0,0.0,92,-99.99,,,-99.99,,2013-02-11 08:11:00,
2013-02-11 01:21:00,14.0,12.0,-100.00,SSE,168,1.0,1.0,93,-99.99,,,-99.99,,2013-02-11 08:21:00,
2013-02-11 01:31:00,14.0,13.0,-100.00,SW,217,0.0,2.0,94,-99.99,,,-99.99,,2013-02-11 08:31:00,
2013-02-11 01:42:00,14.0,13.0,-100.00,SW,217,0.0,2.0,94,-99.99,,,-99.99,,2013-02-11 08:42:00,
2013-02-11 01:51:00,15.0,13.0,-100.00,NNE,25,2.0,3.0,92,-99.99,,,-99.99,,2013-02-11 08:51:00,
2013-02-11 02:01:00,15.0,13.0,-100.00,North,0,0.0,2.0,92,-99.99,,,-99.99,,2013-02-11 09:01:00,
2013-02-11 02:12:00,15.0,14.0,-100.00,ENE,57,1.0,2.0,93,-99.99,,,-99.99,,2013-02-11 09:12:00,
2013-02-11 02:21:00,15.0,13.0,-100.00,NE,41,0.0,1.0,91,-99.99,,,-99.99,,2013-02-11 09:21:00,
2013-02-11 02:31:00,14.0,12.0,-100.00,SW,232,0.0,1.0,91,-99.99,,,-99.99,,2013-02-11 09:31:00,
2013-02-11 02:41:00,14.0,13.0,-100.00,SSW,211,2.0,2.0,93,-99.99,,,-99.99,,2013-02-11 09:41:00,
2013-02-11 02:51:00,15.0,13.0,-100.00,SSE,161,3.0,3.0,93,-99.99,,,-99.99,,2013-02-11 09:51:00,
2013-02-11 03:01:00,15.0,14.0,-100.00,SSW,195,2.0,2.0,93,-99.99,,,-99.99,,2013-02-11 10:01:00,
2013-02-11 03:11:00,15.0,14.0,-100.00,SSW,192,3.0,3.0,92,-99.99,,,-99.99,,2013-02-11 10:11:00,
2013-02-11 03:21:00,15.0,13.0,-100.00,North,0,0.0,1.0,92,-99.99,,,-99.99,,2013-02-11 10:21:00,
2013-02-11 03:31:00,15.0,13.0,-100.00,South,173,0.0,1.0,92,-99.99,,,-99.99,,2013-02-11 10:31:00,
2013-02-11 03:41:00,15.0,13.0,-100.00,South,173,0.0,1.0,92,-99.99,,,-99.99,,2013-02-11 10:41:00,
2013-02-11 03:51:00,15.0,13.0,-100.00,South,173,0.0,1.0,92,-99.99,,,-99.99,,2013-02-11 10:51:00,
2013-02-11 04:01:00,14.0,13.0,-100.00,North,0,0.0,1.0,94,-99.99,,,-99.99,,2013-02-11 11:01:00,
2013-02-11 04:11:00,14.0,13.0,-100.00,North,0,0.0,1.0,94,-99.99,,,-99.99,,2013-02-11 11:11:00,
2013-02-11 04:22:00,14.0,13.0,-100.00,North,0,0.0,1.0,94,-99.99,,,-99.99,,2013-02-11 11:22:00,
2013-02-11 04:32:00,14.0,13.0,-100.00,SW,233,1.0,2.0,94,-99.99,,,-99.99,,2013-02-11 11:32:00,
2013-02-11 04:42:00,14.0,12.0,-100.00,North,0,0.0,2.0,93,-99.99,,,-99.99,,2013-02-11 11:42:00,
2013-02-11 04:52:00,12.0,11.0,-100.00,West,262,1.0,2.0,91,-99.99,,,-99.99,,2013-02-11 11:52:00,
2013-02-11 05:02:00,12.0,10.0,-100.00,WNW,294,1.0,3.0,92,-99.99,,,-99.99,,2013-02-11 12:02:00,
2013-02-11 05:12:00,12.0,10.0,-100.00,WSW,249,3.0,4.0,92,-99.99,,,-99.99,,2013-02-11 12:12:00,
2013-02-11 05:22:00,12.0,10.0,-100.00,WSW,249,3.0,4.0,92,-99.99,,,-99.99,,2013-02-11 12:22:00,
2013-02-11 05:31:00,14.0,12.0,-100.00,WSW,241,3.0,4.0,90,-99.99,,,-99.99,,2013-02-11 12:31:00,
2013-02-11 05:42:00,14.0,12.0,-100.00,WSW,250,1.0,2.0,91,-99.99,,,-99.99,,2013-02-11 12:42:00,
2013-02-11 05:52:00,14.0,12.0,-100.00,WSW,252,2.0,4.0,89,-99.99,,,-99.99,,2013-02-11 12:52:00,
2013-02-11 06:01:00,13.0,11.0,-100.00,SW,234,5.0,5.0,89,-99.99,,,-99.99,,2013-02-11 13:01:00,
2013-02-11 06:11:00,12.0,10.0,-100.00,West,269,0.0,4.0,91,-99.99,,,-99.99,,2013-02-11 13:11:00,
2013-02-11 06:21:00,12.0,10.0,-100.00,West,269,0.0,4.0,91,-99.99,,,-99.99,,2013-02-11 13:21:00,
2013-02-11 06:32:00,12.0,10.0,-100.00,South,191,1.0,2.0,91,-99.99,,,-99.99,,2013-02-11 13:32:00,
2013-02-11 06:41:00,13.0,11.0,-100.00,SSW,204,1.0,2.0,90,-99.99,,,-99.99,,2013-02-11 13:41:00,
2013-02-11 06:51:00,13.0,11.0,-100.00,WSW,244,1.0,2.0,91,-99.99,,,-99.99,,2013-02-11 13:51:00,
2013-02-11 07:01:00,13.0,11.0,-100.00,WSW,244,1.0,2.0,91,-99.99,,,-99.99,,2013-02-11 14:01:00,
2013-02-11 07:11:00,14.0,12.0,-100.00,SE,125,1.0,3.0,91,-99.99,,,-99.99,,2013-02-11 14:11:00,
2013-02-11 07:21:00,15.0,12.0,-100.00,South,178,2.0,2.0,90,-99.99,,,-99.99,,2013-02-11 14:21:00,
2013-02-11 07:32:00,15.0,12.0,-100.00,SSE,166,2.0,3.0,89,-99.99,,,-99.99,,2013-02-11 14:32:00,
2013-02-11 07:42:00,15.0,13.0,-100.00,SSE,159,1.0,1.0,90,-99.99,,,-99.99,,2013-02-11 14:42:00,
2013-02-11 07:52:00,15.0,13.0,-100.00,SSE,159,1.0,1.0,90,-99.99,,,-99.99,,2013-02-11 14:52:00,
2013-02-11 08:01:00,14.0,12.0,-100.00,North,0,0.0,0.0,90,-99.99,,,-99.99,,2013-02-11 15:01:00,
2013-02-11 08:11:00,15.0,13.0,-100.00,North,0,0.0,0.0,91,-99.99,,,-99.99,,2013-02-11 15:11:00,
2013-02-11 08:21:00,15.0,13.0,-100.00,North,0,0.0,0.0,91,-99.99,,,-99.99,,2013-02-11 15:21:00,
2013-02-11 08:31:00,15.0,13.0,-100.00,North,0,0.0,0.0,91,-99.99,,,-99.99,,2013-02-11 15:31:00,
2013-02-11 08:42:00,14.0,12.0,-100.00,SE,134,3.0,5.0,90,-99.99,,,-99.99,,2013-02-11 15:42:00,
2013-02-11 08:51:00,14.0,12.0,-100.00,SE,134,3.0,5.0,90,-99.99,,,-99.99,,2013-02-11 15:51:00,
2013-02-11 09:01:00,16.0,13.0,-100.00,ESE,115,3.0,4.0,88,-99.99,,,-99.99,,2013-02-11 16:01:00,
2013-02-11 09:11:00,17.0,14.0,-100.00,East,79,3.0,5.0,86,-99.99,,,-99.99,,2013-02-11 16:11:00,
2013-02-11 09:21:00,17.0,14.0,-100.00,East,79,3.0,5.0,86,-99.99,,,-99.99,,2013-02-11 16:21:00,
2013-02-11 09:31:00,17.0,14.0,-100.00,East,79,3.0,5.0,86,-99.99,,,-99.99,,2013-02-11 16:31:00,
2013-02-11 09:42:00,18.0,13.0,-100.00,SE,124,4.0,4.0,83,-99.99,,,-99.99,,2013-02-11 16:42:00,
2013-02-11 09:51:00,18.0,14.0,-100.00,ESE,105,4.0,5.0,82,-99.99,,,-99.99,,2013-02-11 16:51:00,
2013-02-11 10:01:00,18.0,14.0,-100.00,ESE,105,4.0,5.0,82,-99.99,,,-99.99,,2013-02-11 17:01:00,
2013-02-11 10:11:00,19.0,13.0,-100.00,East,99,6.0,6.0,76,-99.99,,,-99.99,,2013-02-11 17:11:00,
2013-02-11 10:21:00,19.0,13.0,-100.00,East,99,6.0,6.0,76,-99.99,,,-99.99,,2013-02-11 17:21:00,
2013-02-11 10:31:00,19.0,13.0,-100.00,East,84,6.0,7.0,74,-99.99,,,-99.99,,2013-02-11 17:31:00,
2013-02-11 10:41:00,19.0,13.0,-100.00,East,89,6.0,8.0,76,-99.99,,,-99.99,,2013-02-11 17:41:00,
2013-02-11 10:52:00,20.0,13.0,-100.00,East,84,5.0,5.0,73,-99.99,,,-99.99,,2013-02-11 17:52:00,
2013-02-11 11:01:00,20.0,13.0,-100.00,East,84,5.0,5.0,73,-99.99,,,-99.99,,2013-02-11 18:01:00,
2013-02-11 11:11:00,21.0,12.0,-100.00,ESE,106,4.0,7.0,69,-99.99,,,-99.99,,2013-02-11 18:11:00,
2013-02-11 11:21:00,20.0,12.0,-100.00,East,85,5.0,6.0,70,-99.99,,,-99.99,,2013-02-11 18:21:00,
2013-02-11 11:31:00,20.0,12.0,-100.00,East,85,5.0,6.0,70,-99.99,,,-99.99,,2013-02-11 18:31:00,
2013-02-11 11:41:00,22.0,15.0,-100.00,WSW,256,5.0,7.0,73,-99.99,,,-99.99,,2013-02-11 18:41:00,
2013-02-11 11:50:00,20.0,14.0,-100.00,WSW,241,6.0,8.0,75,-99.99,,,-99.99,,2013-02-11 18:50:00,
2013-02-11 11:52:00,22.0,15.0,-100.00,WSW,256,5.0,7.0,73,-99.99,,,-99.99,,2013-02-11 18:52:00,
2013-02-11 12:01:00,22.0,15.0,-100.00,WSW,256,5.0,7.0,73,-99.99,,,-99.99,,2013-02-11 19:01:00,
2013-02-11 12:11:00,21.0,14.0,-100.00,WSW,245,6.0,8.0,74,-99.99,,,-99.99,,2013-02-11 19:11:00,
2013-02-11 12:21:00,20.0,14.0,-100.00,WSW,241,6.0,8.0,75,-99.99,,,-99.99,,2013-02-11 19:21:00,
2013-02-11 12:31:00,20.0,14.0,-100.00,WSW,241,6.0,8.0,75,-99.99,,,-99.99,,2013-02-11 19:31:00,
2013-02-11 12:41:00,20.0,14.0,-100.00,WSW,241,6.0,8.0,75,-99.99,,,-99.99,,2013-02-11 19:41:00,
2013-02-11 13:01:00,23.0,16.0,-100.00,West,269,4.0,6.0,73,-99.99,,,-99.99,,2013-02-11 20:01:00,
2013-02-11 13:11:00,23.0,16.0,-100.00,WSW,257,3.0,5.0,74,-99.99,,,-99.99,,2013-02-11 20:11:00,
2013-02-11 13:21:00,23.0,16.0,-100.00,WSW,257,3.0,5.0,74,-99.99,,,-99.99,,2013-02-11 20:21:00,
2013-02-11 13:31:00,23.0,16.0,-100.00,WSW,257,3.0,5.0,74,-99.99,,,-99.99,,2013-02-11 20:31:00,
2013-02-11 13:41:00,22.0,15.0,-100.00,WSW,244,5.0,9.0,76,-99.99,,,-99.99,,2013-02-11 20:41:00,
2013-02-11 13:52:00,22.0,16.0,-100.00,West,272,4.0,7.0,77,-99.99,,,-99.99,,2013-02-11 20:52:00,
2013-02-11 14:02:00,22.0,16.0,-100.00,West,272,4.0,7.0,77,-99.99,,,-99.99,,2013-02-11 21:02:00,
2013-02-11 14:11:00,22.0,17.0,-100.00,ENE,74,3.0,4.0,78,-99.99,,,-99.99,,2013-02-11 21:11:00,
2013-02-11 14:21:00,22.0,17.0,-100.00,ENE,74,3.0,4.0,78,-99.99,,,-99.99,,2013-02-11 21:21:00,
2013-02-11 14:31:00,21.0,18.0,-100.00,ENE,74,7.0,7.0,86,-99.99,,,-99.99,,2013-02-11 21:31:00,
2013-02-11 14:41:00,21.0,18.0,-100.00,ENE,74,7.0,7.0,86,-99.99,,,-99.99,,2013-02-11 21:41:00,
2013-02-11 14:51:00,20.0,17.0,-100.00,ENE,71,7.0,10.0,90,-99.99,,,-99.99,,2013-02-11 21:51:00,
2013-02-11 15:01:00,20.0,17.0,-100.00,ENE,71,7.0,10.0,90,-99.99,,,-99.99,,2013-02-11 22:01:00,
2013-02-11 15:11:00,20.0,18.0,-100.00,East,80,6.0,7.0,89,-99.99,,,-99.99,,2013-02-11 22:11:00,
2013-02-11 15:21:00,20.0,18.0,-100.00,East,80,6.0,7.0,89,-99.99,,,-99.99,,2013-02-11 22:21:00,
2013-02-11 15:31:00,21.0,18.0,-100.00,East,82,5.0,6.0,85,-99.99,,,-99.99,,2013-02-11 22:31:00,
2013-02-11 15:41:00,21.0,18.0,-100.00,East,82,5.0,6.0,85,-99.99,,,-99.99,,2013-02-11 22:41:00,
2013-02-11 15:51:00,21.0,18.0,-100.00,East,82,5.0,6.0,85,-99.99,,,-99.99,,2013-02-11 22:51:00,
2013-02-11 16:01:00,21.0,17.0,-100.00,ENE,60,6.0,6.0,81,-99.99,,,-99.99,,2013-02-11 23:01:00,
2013-02-11 16:11:00,21.0,17.0,-100.00,ENE,60,6.0,6.0,81,-99.99,,,-99.99,,2013-02-11 23:11:00,
2013-02-11 16:21:00,20.0,16.0,-100.00,East,83,8.0,9.0,85,-99.99,,,-99.99,,2013-02-11 23:21:00,
2013-02-11 16:31:00,20.0,17.0,-100.00,ENE,75,7.0,8.0,88,-99.99,,,-99.99,,2013-02-11 23:31:00,
2013-02-11 16:41:00,20.0,17.0,-100.00,ENE,75,7.0,8.0,88,-99.99,,,-99.99,,2013-02-11 23:41:00,
2013-02-11 16:52:00,19.0,16.0,-100.00,NE,51,5.0,7.0,88,-99.99,,,-99.99,,2013-02-11 23:52:00,
2013-02-11 17:01:00,18.0,14.0,-100.00,NE,35,4.0,6.0,82,-99.99,,,-99.99,,2013-02-12 00:01:00,
2013-02-11 17:11:00,18.0,14.0,-100.00,East,99,3.0,4.0,84,-99.99,,,-99.99,,2013-02-12 00:11:00,
2013-02-11 17:21:00,18.0,14.0,-100.00,East,99,3.0,4.0,84,-99.99,,,-99.99,,2013-02-12 00:21:00,
2013-02-11 17:31:00,18.0,15.0,-100.00,ENE,71,2.0,4.0,85,-99.99,,,-99.99,,2013-02-12 00:31:00,
2013-02-11 17:41:00,18.0,15.0,-100.00,ENE,71,2.0,4.0,85,-99.99,,,-99.99,,2013-02-12 00:41:00,
2013-02-11 17:51:00,19.0,14.0,-100.00,East,83,0.0,2.0,82,-99.99,,,-99.99,,2013-02-12 00:51:00,
2013-02-11 18:01:00,19.0,14.0,-100.00,East,83,0.0,2.0,82,-99.99,,,-99.99,,2013-02-12 01:01:00,
2013-02-11 18:11:00,16.0,12.0,-100.00,East,96,2.0,3.0,83,-99.99,,,-99.99,,2013-02-12 01:11:00,
2013-02-11 18:21:00,16.0,12.0,-100.00,East,96,2.0,3.0,83,-99.99,,,-99.99,,2013-02-12 01:21:00,
2013-02-11 18:31:00,12.0,9.0,-100.00,West,270,2.0,2.0,87,-99.99,,,-99.99,,2013-02-12 01:31:00,
2013-02-11 18:41:00,12.0,9.0,-100.00,West,270,2.0,2.0,87,-99.99,,,-99.99,,2013-02-12 01:41:00,
2013-02-11 18:51:00,12.0,9.0,-100.00,West,270,2.0,2.0,87,-99.99,,,-99.99,,2013-02-12 01:51:00,
2013-02-11 19:01:00,9.0,8.0,-100.00,WSW,237,5.0,5.0,92,-99.99,,,-99.99,,2013-02-12 02:01:00,
2013-02-11 19:11:00,13.0,12.0,-100.00,WSW,254,6.0,7.0,96,-99.99,,,-99.99,,2013-02-12 02:11:00,
2013-02-11 19:21:00,13.0,12.0,-100.00,WSW,254,6.0,7.0,96,-99.99,,,-99.99,,2013-02-12 02:21:00,
2013-02-11 19:31:00,15.0,14.0,-100.00,West,261,7.0,9.0,96,-99.99,,,-99.99,,2013-02-12 02:31:00,
2013-02-11 19:41:00,15.0,14.0,-100.00,West,261,7.0,9.0,96,-99.99,,,-99.99,,2013-02-12 02:41:00,
2013-02-11 19:52:00,15.0,14.0,-100.00,West,261,7.0,9.0,96,-99.99,,,-99.99,,2013-02-12 02:52:00,
2013-02-11 20:02:00,11.0,9.0,-100.00,WSW,244,5.0,5.0,93,-99.99,,,-99.99,,2013-02-12 03:02:00,
2013-02-11 20:11:00,11.0,10.0,-100.00,WSW,253,5.0,6.0,94,-99.99,,,-99.99,,2013-02-12 03:11:00,
2013-02-11 20:21:00,12.0,11.0,-100.00,West,264,7.0,9.0,94,-99.99,,,-99.99,,2013-02-12 03:21:00,
2013-02-11 20:31:00,12.0,11.0,-100.00,West,264,7.0,9.0,94,-99.99,,,-99.99,,2013-02-12 03:31:00,
2013-02-11 20:41:00,13.0,12.0,-100.00,West,259,6.0,7.0,94,-99.99,,,-99.99,,2013-02-12 03:41:00,
2013-02-11 20:51:00,13.0,12.0,-100.00,West,259,6.0,7.0,94,-99.99,,,-99.99,,2013-02-12 03:51:00,
2013-02-11 21:01:00,13.0,11.0,-100.00,West,268,5.0,6.0,95,-99.99,,,-99.99,,2013-02-12 04:01:00,
2013-02-11 21:11:00,13.0,11.0,-100.00,West,268,5.0,6.0,95,-99.99,,,-99.99,,2013-02-12 04:11:00,
2013-02-11 21:21:00,13.0,11.0,-100.00,West,268,5.0,6.0,95,-99.99,,,-99.99,,2013-02-12 04:21:00,
2013-02-11 21:31:00,12.0,12.0,-100.00,West,269,7.0,8.0,96,-99.99,,,-99.99,,2013-02-12 04:31:00,
2013-02-11 21:41:00,11.0,9.0,-100.00,SW,226,5.0,6.0,93,-99.99,,,-99.99,,2013-02-12 04:41:00,
2013-02-11 21:51:00,11.0,9.0,-100.00,SW,226,5.0,6.0,93,-99.99,,,-99.99,,2013-02-12 04:51:00,
2013-02-11 22:01:00,9.0,7.0,-100.00,SW,236,4.0,5.0,91,-99.99,,,-99.99,,2013-02-12 05:01:00,
2013-02-11 22:11:00,9.0,7.0,-100.00,SW,235,4.0,4.0,93,-99.99,,,-99.99,,2013-02-12 05:11:00,
2013-02-11 22:21:00,9.0,7.0,-100.00,SW,235,4.0,4.0,93,-99.99,,,-99.99,,2013-02-12 05:21:00,
2013-02-11 22:31:00,7.0,5.0,-100.00,WSW,245,3.0,4.0,90,-99.99,,,-99.99,,2013-02-12 05:31:00,
2013-02-11 22:41:00,7.0,5.0,-100.00,WSW,245,3.0,4.0,92,-99.99,,,-99.99,,2013-02-12 05:41:00,
2013-02-11 22:52:00,8.0,6.0,-100.00,WSW,237,2.0,4.0,92,-99.99,,,-99.99,,2013-02-12 05:52:00,
2013-02-11 23:01:00,8.0,6.0,-100.00,WSW,237,2.0,4.0,92,-99.99,,,-99.99,,2013-02-12 06:01:00,
2013-02-11 23:12:00,7.0,4.0,-100.00,West,274,2.0,3.0,88,-99.99,,,-99.99,,2013-02-12 06:12:00,
2013-02-11 23:21:00,7.0,5.0,-100.00,West,265,2.0,3.0,91,-99.99,,,-99.99,,2013-02-12 06:21:00,
2013-02-11 23:31:00,7.0,5.0,-100.00,WSW,256,2.0,3.0,92,-99.99,,,-99.99,,2013-02-12 06:31:00,
2013-02-11 23:42:00,6.0,3.0,-100.00,West,269,4.0,4.0,88,-99.99,,,-99.99,,2013-02-12 06:42:00,
2013-02-11 23:51:00,6.0,4.0,-100.00,WSW,249,3.0,3.0,91,-99.99,,,-99.99,,2013-02-12 06:51:00,